Simultaneous Nadir Overpasses (SNOs) Predictions

Prediction of SNOs between GOES-16 and NPP Satellite Orbit:

Table of predicted SNOs for the next 14.0 days since TLE Epoch: 12/2/2023
Index Date Time (GOES-16) GOES-16 Lat,Lon NPP Lat,Lon Distance(km) Time Diff (sec)
1 12/02/2023 18:11:08 -0.01, -75.22 0.88, -71.21 456.71 80
2 12/04/2023 06:32:55 0.00, -75.22 0.31, -76.47 143.28 80
3 12/05/2023 06:11:29 0.01, -75.23 -0.70, -71.94 374.37 80
4 12/06/2023 18:33:25 -0.00, -75.25 -0.42, -77.25 227.27 80
5 12/07/2023 18:17:20 -0.00, -75.26 0.59, -72.72 291.02 80
6 12/09/2023 06:39:06 0.00, -75.28 0.58, -77.98 307.30 80
7 12/10/2023 06:17:40 0.01, -75.29 -0.38, -73.44 210.97 80
8 12/11/2023 18:39:35 -0.01, -75.32 -0.78, -78.74 390.37 80
9 12/12/2023 18:23:30 -0.01, -75.33 0.24, -74.21 128.10 80
10 12/14/2023 06:45:16 0.01, -75.35 0.91, -79.48 469.62 80
11 12/15/2023 06:23:50 0.00, -75.37 -0.12, -74.95 48.74 80
